Zurück zum Katalog

HULIANWANG DIGUI-169

AktivWissenschaftLEO
NORAD 69572·PAYLOAD·🇨🇳 China

Gestartet Jun 17, 2026 von Wenchang Space Launch Site

Loading…

Nächste Überflüge (nächste 24 Stunden)

TLE

AktuellSource: Space-Track

Epoche: Sep 14, 2026, 07:51 UTC

1 69572U 26137A   26257.32713348 -.00000086  00000-0  80954-4 0  9996
2 69572  50.0008 276.4391 0000190 332.5183  27.5679 13.29326160 12182

Verfolge HULIANWANG DIGUI-169 in Echtzeit mit AllMySat

Download on the App Store